Lid_Strength_Index
-0 -0 -1 -0 -0 -1 -1 -1 -1 -1 -1 -1 -1 -1 -1 -1 -0 4 8 5 2 -1 -1 4 5 5 6 7 6 7 12 14 13 13 11 7 9 6 5 6 7 6 6 5 3
0 -0 -1 -0 -0 -1 -1 -1 -1 -1 -1 -1 -1 -1 -1 -1 3 6 2 0 -1 -2 5 5 6 6 8 8 7 9 13 12 9 8 9 8 8 7 8 7 7 7 5 3 3
-0 -0 -0 -0 -0 -0 -0 -0 -0 -1 -1 -1 -1 -1 -1 1 8 9 1 -1 -1 -1 4 4 5 7 9 9 9 9 12 9 8 7 7 8 8 6 8 9 7 8 6 5 4
0 0 0 -0 -0 -0 -0 -0 -0 -1 -1 -1 -1 -1 -1 4 14 8 -1 -1 -1 2 5 6 7 9 10 11 8 11 8 8 7 6 7 8 7 8 7 7 5 5 5 4 5
-0 0 0 1 0 -0 -0 -0 -0 -0 -0 -1 -1 -1 3 10 10 6 -0 3 5 5 6 7 8 9 11 10 9 10 9 7 6 7 7 7 8 8 7 6 4 5 5 5 5
0 -0 0 1 1 0 -0 -0 -1 -0 -1 -0 -1 -1 7 12 7 6 6 6 6 6 7 7 8 7 9 9 10 8 8 8 7 7 7 8 8 7 7 6 6 6 6 5 5
1 1 0 0 0 1 0 -0 -1 -1 -0 0 -0 2 7 9 5 6 6 7 6 6 7 6 6 7 8 10 8 8 11 9 9 8 8 7 10 10 6 6 7 6 6 6 5
1 2 1 1 0 0 0 0 0 -0 -0 -0 0 5 9 5 5 6 6 6 6 6 6 6 5 7 8 8 10 12 12 14 10 9 8 9 12 9 7 8 8 7 6 6 6
2 2 2 2 1 0 0 0 0 0 -0 -0 5 8 11 4 8 7 7 7 7 6 6 4 6 9 10 13 15 14 16 14 12 9 9 10 12 9 7 8 8 8 7 6 5
3 3 3 2 2 2 1 1 1 3 3 3 5 12 10 10 8 6 7 6 8 8 8 9 11 13 14 15 18 17 17 14 14 10 10 11 11 10 8 9 9 8 7 7 6
3 3 3 3 2 2 6 9 10 12 9 11 11 11 10 7 7 7 6 8 9 10 13 12 14 16 14 14 13 14 16 14 12 10 11 12 12 11 9 8 10 9 8 7 6
4 4 3 3 2 3 8 10 10 10 12 9 9 9 8 8 10 8 7 11 11 14 12 14 17 13 12 12 13 14 15 14 12 11 12 12 13 12 10 9 8 9 8 7 6
4 4 3 3 3 6 9 9 8 8 13 11 9 9 10 8 10 10 8 10 12 15 15 15 14 11 12 14 14 15 16 15 14 12 13 14 14 13 11 8 8 7 7 6 6
3 4 3 3 7 8 10 7 8 8 17 14 13 11 10 9 13 8 8 10 12 14 14 15 12 12 13 15 15 16 13 13 13 14 17 14 18 14 13 12 10 8 8 7 6
3 3 4 4 9 10 8 7 8 11 23 14 13 9 10 12 11 11 8 9 13 14 15 17 14 14 15 15 14 15 13 13 13 14 17 16 17 15 14 13 13 12 11 9 6
3 3 4 7 8 8 7 8 10 18 24 16 13 13 14 13 12 11 11 10 10 14 16 14 13 13 14 12 13 12 15 15 16 15 19 17 18 16 15 14 13 12 11 7 7
3 4 5 7 10 7 8 12 18 21 16 16 16 15 16 15 14 13 14 15 16 18 18 17 16 15 13 15 13 14 17 21 21 20 19 16 17 16 13 12 12 12 11 8 6
4 5 7 7 8 8 11 16 21 19 19 15 16 16 17 16 16 15 15 17 15 17 19 20 20 16 14 15 16 16 17 21 23 22 21 16 18 15 12 11 11 12 12 11 11
5 9 8 8 8 9 14 20 19 19 16 16 16 19 19 17 17 17 19 17 16 16 19 20 19 15 14 14 15 16 18 16 19 21 22 19 17 13 12 12 11 12 11 12 12
10 11 10 8 9 12 16 17 18 15 14 16 19 18 20 18 18 18 19 15 14 14 16 18 19 17 16 15 15 15 15 20 19 23 23 22 21 19 16 15 13 13 13 12 12
11 14 11 9 10 14 18 19 16 14 14 16 18 18 19 19 19 19 19 16 14 15 15 17 18 17 17 18 18 17 18 18 19 20 23 24 21 17 16 16 15 14 14 14 13
14 16 11 10 15 16 17 16 12 15 13 15 15 16 18 17 18 19 19 17 14 15 18 17 17 19 18 18 16 16 18 19 21 22 21 22 22 16 17 14 14 14 14 14 14
15 15 11 12 18 19 17 15 15 15 15 15 15 14 15 17 19 18 17 14 14 15 17 16 19 22 19 18 18 19 17 18 18 19 21 23 21 16 14 14 14 14 14 13 13
15 17 14 14 16 17 18 17 17 14 14 14 15 15 17 18 16 17 17 15 14 15 9 13 18 20 22 20 19 19 19 18 19 21 21 21 19 18 16 16 15 14 14 14 13
16 16 16 17 15 16 16 16 17 17 15 15 16 16 17 19 18 18 17 16 15 13 14 15 18 20 18 18 18 18 17 18 20 19 20 20 20 17 16 16 15 14 15 15 15
15 16 15 16 15 15 15 16 16 16 16 17 16 16 16 17 17 18 17 18 17 16 16 16 19 18 19 17 18 18 18 18 18 19 19 19 19 17 16 16 16 16 16 17 16
13 14 15 16 17 17 17 17 16 15 15 15 15 17 18 16 16 15 15 15 15 17 16 17 18 19 20 19 19 20 19 18 17 16 17 19 17 17 18 17 17 16 17 17 16